User: anonymous   Login
Location: Unspecified
(0.0000°N, 0.0000°E)
Time: 01:48:52
(UTC+00:00)
Language:

STARLINK-3765 - Orbit

View from above orbital plane
View from above orbital plane
View from above satellite
View from above satellite

Ground track
Ground track

The orbit is defined by the following mean orbital elements,

1 52295U          26145.33051976 +.00000000 +00000-0 -27339-3 0 00006
2 52295  53.2138 115.0639 0001551  73.7438 286.3725 15.08862501    05
Epoch (UTC): 25 May 2026 07:55:56
Eccentricity: 0.0001551
inclination: 53.2138°
perigee height: 539 km
apogee height: 541 km
right ascension of ascending node: 115.0639°
argument of perigee: 73.7438°
revolutions per day: 15.08862501
mean anomaly at epoch: 286.3725°

The dashed part of the orbit path shows where the satellite is in the earth's shadow,  

DLR